,,Stat6,,Stat2,,Stat8,,Stat9,,Stat10,,Wind1,,Wind1,
time,status,PA1M_AVG,status,PR1M_SUM,status,RH1M_AVG,status,SR1M_AVG,status,TA1M_AVG,status,W1dAve1m,status,W1sAve1m,
2005-05-15, 00:00:00,VALID,917.614,VALID,0,VALID,100,VALID,0,VALID,20.3043,VALID,122,VALID,0.843205,
2005-05-15, 00:01:01,VALID,917.575,VALID,0,VALID,100,VALID,0.0339617,VALID,20.3076,VALID,117,VALID,0.880814,
2005-05-15, 00:02:01,VALID,917.534,VALID,0,VALID,100,VALID,0.0169808,VALID,20.3016,VALID,106,VALID,0.79306,
2005-05-15, 00:03:00,VALID,917.493,VALID,0,VALID,100,VALID,0.0169808,VALID,20.2817,VALID,100,VALID,0.953869,
2005-05-15, 00:04:01,VALID,917.449,VALID,0,VALID,100,VALID,0.0169808,VALID,20.2686,VALID,99,VALID,0.838415,
2005-05-15, 00:05:01,VALID,917.427,VALID,0,VALID,100,VALID,0,VALID,20.2562,VALID,98,VALID,0.747049,
2005-05-15, 00:06:00,VALID,917.421,VALID,0,VALID,100,VALID,0.0169808,VALID,20.2365,VALID,96,VALID,0.646151,
2005-05-15, 00:07:01,VALID,917.41,VALID,0,VALID,100,VALID,0,VALID,20.2333,VALID,98,VALID,0.623611,
2005-05-15, 00:08:00,VALID,917.4,VALID,0,VALID,100,VALID,0,VALID,20.2142,VALID,103,VALID,0.640053,
2005-05-15, 00:09:00,VALID,917.399,VALID,0,VALID,100,VALID,-0.0169808,VALID,20.2142,VALID,112,VALID,0.724201,
2005-05-15, 00:10:01,VALID,917.39,VALID,0,VALID,100,VALID,0,VALID,20.2139,VALID,120,VALID,0.699558,
2005-05-15, 00:11:00,VALID,917.378,VALID,0,VALID,100,VALID,0,VALID,20.2239,VALID,127,VALID,0.867188,
2005-05-15, 00:12:00,VALID,917.387,VALID,0,VALID,100,VALID,0,VALID,20.2303,VALID,134,VALID,0.78311,
2005-05-15, 00:13:00,VALID,917.39,VALID,0,VALID,100,VALID,0.0169808,VALID,20.2365,VALID,134,VALID,0.640234,
2005-05-15, 00:14:01,VALID,917.391,VALID,0,VALID,100,VALID,0.0339617,VALID,20.2335,VALID,132,VALID,0.761719,
2005-05-15, 00:15:00,VALID,917.391,VALID,0,VALID,100,VALID,0,VALID,20.2268,VALID,130,VALID,0.963415,
2005-05-15, 00:16:00,VALID,917.397,VALID,0,VALID,100,VALID,0,VALID,20.2171,VALID,131,VALID,1.06559,
2005-05-15, 00:17:01,VALID,917.414,VALID,0,VALID,100,VALID,0.0169808,VALID,20.2174,VALID,133,VALID,0.876143,
2005-05-15, 00:18:00,VALID,917.415,VALID,0,VALID,100,VALID,0.0169808,VALID,20.2142,VALID,132,VALID,1.12944,
2005-05-15, 00:19:01,VALID,917.409,VALID,0,VALID,100,VALID,0.0169808,VALID,20.2177,VALID,125,VALID,0.917783,
2005-05-15, 00:20:01,VALID,917.412,VALID,0,VALID,100,VALID,0,VALID,20.2109,VALID,120,VALID,0.760938,
2005-05-15, 00:21:00,VALID,917.423,VALID,0,VALID,100,VALID,0.0169808,VALID,20.2002,VALID,118,VALID,0.788867,
2005-05-15, 00:22:00,VALID,917.43,VALID,0,VALID,100,VALID,-0.0169808,VALID,20.2375,VALID,121,VALID,0.898438,
2005-05-15, 00:23:00,VALID,917.429,VALID,0,VALID,100,VALID,-0.0169808,VALID,20.2465,VALID,128,VALID,0.888494,
2005-05-15, 00:24:00,VALID,917.406,VALID,0,VALID,100,VALID,0,VALID,20.2462,VALID,126,VALID,1.01495,
2005-05-15, 00:25:00,VALID,917.385,VALID,0,VALID,100,VALID,0.0509425,VALID,20.2653,VALID,131,VALID,0.792039,
2005-05-15, 00:26:01,VALID,917.364,VALID,0,VALID,100,VALID,0.0169808,VALID,20.2726,VALID,108,VALID,1.17728,
2005-05-15, 00:27:00,VALID,917.357,VALID,0,VALID,100,VALID,0.0509425,VALID,20.2494,VALID,113,VALID,1.24219,
2005-05-15, 00:28:00,VALID,917.363,VALID,0,VALID,100,VALID,0,VALID,20.2492,VALID,115,VALID,0.883557,
2005-05-15, 00:29:00,VALID,917.368,VALID,0,VALID,100,VALID,0.0169808,VALID,20.2492,VALID,131,VALID,0.881904,
2005-05-15, 00:30:00,VALID,917.337,VALID,0,VALID,100,VALID,0.0169808,VALID,20.233,VALID,125,VALID,1.03743,
2005-05-15, 00:31:01,VALID,917.311,VALID,0,VALID,100,VALID,0.0169808,VALID,20.2169,VALID,127,VALID,0.808308,
2005-05-15, 00:32:00,VALID,917.296,VALID,0,VALID,100,VALID,0.0169808,VALID,20.2268,VALID,127,VALID,0.913281,
2005-05-15, 00:33:01,VALID,917.295,VALID,0,VALID,100,VALID,0.0169808,VALID,20.2239,VALID,133,VALID,0.786272,
2005-05-15, 00:34:00,VALID,917.283,VALID,0,VALID,100,VALID,0.0169808,VALID,20.2005,VALID,126,VALID,1.09484,
2005-05-15, 00:35:01,VALID,917.257,VALID,0,VALID,100,VALID,0.0339617,VALID,20.2104,VALID,125,VALID,0.814135,
2005-05-15, 00:36:00,VALID,917.243,VALID,0,VALID,100,VALID,0.0339617,VALID,20.2013,VALID,112,VALID,0.623857,
2005-05-15, 00:37:00,VALID,917.217,VALID,0,VALID,100,VALID,-0.0169808,VALID,20.1886,VALID,117,VALID,0.496003,
2005-05-15, 00:38:00,VALID,917.216,VALID,0,VALID,100,VALID,-0.0339617,VALID,20.1854,VALID,124,VALID,0.859193,
2005-05-15, 00:39:01,VALID,917.21,VALID,0,VALID,100,VALID,-0.0169808,VALID,20.1754,VALID,118,VALID,0.677827,
2005-05-15, 00:40:00,VALID,917.206,VALID,0,VALID,100,VALID,0,VALID,20.1754,VALID,129,VALID,0.947985,
2005-05-15, 00:41:00,VALID,917.189,VALID,0,VALID,100,VALID,0,VALID,20.1724,VALID,124,VALID,0.90625,
2005-05-15, 00:42:01,VALID,917.194,VALID,0,VALID,100,VALID,-0.0169808,VALID,20.1628,VALID,118,VALID,0.781436,
2005-05-15, 00:43:01,VALID,917.205,VALID,0,VALID,100,VALID,0,VALID,20.1565,VALID,118,VALID,0.91246,
2005-05-15, 00:44:01,VALID,917.2,VALID,0,VALID,100,VALID,-0.0679233,VALID,20.1509,VALID,107,VALID,1.30655,
2005-05-15, 00:45:00,VALID,917.198,VALID,0,VALID,100,VALID,-0.0339617,VALID,20.1337,VALID,114,VALID,1.16502,
2005-05-15, 00:46:01,VALID,917.192,VALID,0,VALID,100,VALID,-0.0339617,VALID,20.131,VALID,118,VALID,0.656944,
2005-05-15, 00:47:01,VALID,917.169,VALID,0,VALID,100,VALID,-0.0169808,VALID,20.128,VALID,107,VALID,0.731213,
2005-05-15, 00:48:01,VALID,917.147,VALID,0,VALID,100,VALID,-0.0339617,VALID,20.1186,VALID,97,VALID,1.144,
2005-05-15, 00:49:01,VALID,917.134,VALID,0,VALID,100,VALID,-0.0339617,VALID,20.0922,VALID,79,VALID,1.03887,
2005-05-15, 00:50:00,VALID,917.124,VALID,0,VALID,100,VALID,0,VALID,20.0721,VALID,86,VALID,1.37221,
2005-05-15, 00:51:00,VALID,917.104,VALID,0,VALID,100,VALID,-0.0679233,VALID,20.0564,VALID,72,VALID,0.921131,
2005-05-15, 00:52:00,VALID,917.089,VALID,0,VALID,100,VALID,0.0169808,VALID,20.0433,VALID,74,VALID,0.932706,
2005-05-15, 00:53:01,VALID,917.06,VALID,0,VALID,100,VALID,0,VALID,20.0207,VALID,85,VALID,1.11355,
2005-05-15, 00:54:00,VALID,917.044,VALID,0,VALID,100,VALID,0,VALID,20.0177,VALID,94,VALID,1.18007,
2005-05-15, 00:55:01,VALID,917.011,VALID,0,VALID,100,VALID,0,VALID,20.0077,VALID,95,VALID,1.1806,
2005-05-15, 00:56:01,VALID,917.002,VALID,0,VALID,100,VALID,0,VALID,20.0088,VALID,96,VALID,0.960742,
2005-05-15, 00:57:01,VALID,916.958,VALID,0,VALID,100,VALID,-0.0339617,VALID,19.9886,VALID,104,VALID,1.0516,
2005-05-15, 00:58:01,VALID,916.931,VALID,0,VALID,100,VALID,-0.0169808,VALID,19.9891,VALID,101,VALID,1.14602,
2005-05-15, 00:59:00,VALID,916.927,VALID,0,VALID,100,VALID,-0.0169808,VALID,19.9824,VALID,87,VALID,0.743546,
2005-05-15, 01:00:00,VALID,916.925,VALID,0,VALID,100,VALID,-0.0339617,VALID,19.9854,VALID,73,VALID,0.578646,
2005-05-15, 01:01:01,VALID,916.906,VALID,0,VALID,100,VALID,0,VALID,19.973,VALID,72,VALID,0.65282,
2005-05-15, 01:02:00,VALID,916.895,VALID,0,VALID,100,VALID,-0.0169808,VALID,19.9794,VALID,72,VALID,0.907118,
2005-05-15, 01:03:01,VALID,916.885,VALID,0,VALID,100,VALID,-0.0339617,VALID,19.9827,VALID,70,VALID,0.876953,
2005-05-15, 01:04:01,VALID,916.883,VALID,0,VALID,100,VALID,-0.0169808,VALID,19.9697,VALID,88,VALID,0.911523,
2005-05-15, 01:05:01,VALID,916.872,VALID,0,VALID,100,VALID,-0.0339617,VALID,19.9561,VALID,95,VALID,1.0524,
2005-05-15, 01:06:01,VALID,916.84,VALID,0,VALID,100,VALID,-0.0339617,VALID,19.9563,VALID,95,VALID,1.09966,
2005-05-15, 01:07:01,VALID,916.809,VALID,0,VALID,100,VALID,-0.0339617,VALID,19.9566,VALID,80,VALID,1.1033,
2005-05-15, 01:08:01,VALID,916.786,VALID,0,VALID,100,VALID,-0.0339617,VALID,19.9504,VALID,84,VALID,0.917333,
2005-05-15, 01:09:01,VALID,916.789,VALID,0,VALID,100,VALID,-0.0169808,VALID,19.9601,VALID,90,VALID,0.786644,
2005-05-15, 01:10:01,VALID,916.787,VALID,0,VALID,100,VALID,0,VALID,19.9499,VALID,86,VALID,0.459872,
2005-05-15, 01:11:01,VALID,916.786,VALID,0,VALID,100,VALID,-0.0339617,VALID,19.9573,VALID,86,VALID,0.313368,
2005-05-15, 01:12:01,VALID,916.777,VALID,0,VALID,100,VALID,0,VALID,19.9531,VALID,86,VALID,0.484747,
2005-05-15, 01:13:01,VALID,916.755,VALID,0,VALID,100,VALID,-0.0169808,VALID,19.9544,VALID,85,VALID,0.536719,
2005-05-15, 01:14:01,VALID,916.741,VALID,0,VALID,100,VALID,-0.0509425,VALID,19.9337,VALID,83,VALID,0.435501,
2005-05-15, 01:15:01,VALID,916.738,VALID,0,VALID,100,VALID,-0.0339617,VALID,19.9412,VALID,83,VALID,0.55236,
2005-05-15, 01:16:01,VALID,916.728,VALID,0,VALID,100,VALID,-0.0169808,VALID,19.9273,VALID,83,VALID,0.401296,
2005-05-15, 01:17:01,VALID,916.747,VALID,0,VALID,100,VALID,0,VALID,19.9275,VALID,83,VALID,0.129092,
2005-05-15, 01:18:01,VALID,916.749,VALID,0,VALID,100,VALID,-0.0339617,VALID,19.9213,VALID,83,VALID,0.0228924,
2005-05-15, 01:19:01,VALID,916.728,VALID,0,VALID,100,VALID,0,VALID,19.9245,VALID,83,VALID,0.00488281,
2005-05-15, 01:20:01,VALID,916.733,VALID,0,VALID,100,VALID,0,VALID,19.9245,VALID,83,VALID,0.0053267,
2005-05-15, 01:21:01,VALID,916.728,VALID,0,VALID,100,VALID,0,VALID,19.9245,VALID,83,VALID,0.00093006,
2005-05-15, 01:22:01,VALID,916.713,VALID,0,VALID,100,VALID,0,VALID,19.931,VALID,83,VALID,0,
2005-05-15, 01:23:01,VALID,916.685,VALID,0,VALID,100,VALID,-0.0169808,VALID,19.9337,VALID,83,VALID,0.120722,
2005-05-15, 01:24:01,VALID,916.656,VALID,0,VALID,100,VALID,-0.0169808,VALID,19.9442,VALID,87,VALID,0.358544,
2005-05-15, 01:25:01,VALID,916.634,VALID,0,VALID,100,VALID,-0.0509425,VALID,19.9471,VALID,101,VALID,0.646662,
2005-05-15, 01:26:01,VALID,916.609,VALID,0,VALID,100,VALID,0,VALID,19.9211,VALID,102,VALID,0.749818,
2005-05-15, 01:27:01,VALID,916.587,VALID,0,VALID,100,VALID,-0.0509425,VALID,19.9154,VALID,99,VALID,0.890439,
2005-05-15, 01:28:01,VALID,916.572,VALID,0,VALID,100,VALID,-0.0169808,VALID,19.8987,VALID,100,VALID,0.86814,
2005-05-15, 01:29:01,VALID,916.571,VALID,0,VALID,100,VALID,-0.0339617,VALID,19.9024,VALID,100,VALID,0.980291,
2005-05-15, 01:30:01,VALID,916.562,VALID,0,VALID,100,VALID,-0.0169808,VALID,19.9149,VALID,110,VALID,1.18241,
2005-05-15, 01:31:00,VALID,916.551,VALID,0,VALID,100,VALID,-0.0339617,VALID,19.931,VALID,110,VALID,0.837391,
2005-05-15, 01:32:00,VALID,916.543,VALID,0,VALID,100,VALID,-0.0679233,VALID,19.935,VALID,122,VALID,0.735577,
2005-05-15, 01:33:00,VALID,916.539,VALID,0,VALID,100,VALID,-0.101885,VALID,19.9471,VALID,126,VALID,0.778587,
2005-05-15, 01:34:00,VALID,916.528,VALID,0,VALID,100,VALID,-0.0849042,VALID,19.974,VALID,131,VALID,0.888494,
2005-05-15, 01:35:00,VALID,916.532,VALID,0,VALID,100,VALID,-0.0169808,VALID,19.963,VALID,133,VALID,0.93418,
2005-05-15, 01:36:00,VALID,916.529,VALID,0,VALID,100,VALID,-0.0509425,VALID,19.9563,VALID,132,VALID,0.988917,
2005-05-15, 01:37:00,VALID,916.546,VALID,0,VALID,100,VALID,-0.0169808,VALID,19.9628,VALID,131,VALID,0.938616,
2005-05-15, 01:38:00,VALID,916.532,VALID,0,VALID,100,VALID,-0.0169808,VALID,19.9566,VALID,124,VALID,0.725497,
2005-05-15, 01:39:00,VALID,916.528,VALID,0,VALID,100,VALID,-0.0169808,VALID,19.9596,VALID,108,VALID,0.608186,
2005-05-15, 01:40:00,VALID,916.499,VALID,0,VALID,100,VALID,-0.0169808,VALID,19.9638,VALID,96,VALID,0.966206,
2005-05-15, 01:41:00,VALID,916.495,VALID,0,VALID,100,VALID,0,VALID,19.9566,VALID,96,VALID,0.853198,
2005-05-15, 01:42:00,VALID,916.478,VALID,0,VALID,100,VALID,0,VALID,19.9466,VALID,103,VALID,0.914595,
2005-05-15, 01:43:00,VALID,916.485,VALID,0,VALID,100,VALID,0,VALID,19.9402,VALID,108,VALID,0.903045,
2005-05-15, 01:44:00,VALID,916.492,VALID,0,VALID,100,VALID,0,VALID,19.9442,VALID,103,VALID,0.740885,
2005-05-15, 01:45:00,VALID,916.477,VALID,0,VALID,100,VALID,0,VALID,19.9305,VALID,105,VALID,0.702539,
2005-05-15, 01:46:00,VALID,916.447,VALID,0,VALID,100,VALID,0,VALID,19.9307,VALID,103,VALID,0.877604,
2005-05-15, 01:47:00,VALID,916.394,VALID,0,VALID,100,VALID,-0.0169808,VALID,19.9151,VALID,94,VALID,1.04985,
2005-05-15, 01:48:00,VALID,916.357,VALID,0,VALID,100,VALID,-0.0169808,VALID,19.9216,VALID,91,VALID,0.864397,
2005-05-15, 01:49:00,VALID,916.358,VALID,0,VALID,100,VALID,0.0339617,VALID,19.9216,VALID,97,VALID,0.846839,
2005-05-15, 01:50:00,VALID,916.362,VALID,0,VALID,100,VALID,0,VALID,19.9009,VALID,106,VALID,0.716542,
2005-05-15, 01:51:00,VALID,916.357,VALID,0,VALID,100,VALID,0,VALID,19.9049,VALID,104,VALID,0.989844,
2005-05-15, 01:52:00,VALID,916.321,VALID,0,VALID,100,VALID,0,VALID,19.9076,VALID,104,VALID,1.12591,
2005-05-15, 01:53:00,VALID,916.301,VALID,0,VALID,100,VALID,0,VALID,19.9111,VALID,94,VALID,0.891927,
2005-05-15, 01:54:00,VALID,916.313,VALID,0,VALID,100,VALID,0.0169808,VALID,19.9143,VALID,112,VALID,0.526228,
2005-05-15, 01:55:00,VALID,916.278,VALID,0,VALID,100,VALID,0,VALID,19.8947,VALID,109,VALID,0.755729,
2005-05-15, 01:56:00,VALID,916.259,VALID,0,VALID,100,VALID,0,VALID,19.8853,VALID,134,VALID,0.830382,
2005-05-15, 01:57:00,VALID,916.235,VALID,0,VALID,100,VALID,0.0169808,VALID,19.8753,VALID,126,VALID,0.957889,
2005-05-15, 01:58:00,VALID,916.228,VALID,0,VALID,100,VALID,0.0169808,VALID,19.8753,VALID,105,VALID,0.906771,
2005-05-15, 01:59:00,VALID,916.214,VALID,0,VALID,100,VALID,0,VALID,19.8853,VALID,114,VALID,1.05234,
2005-05-15, 02:00:00,VALID,916.208,VALID,0,VALID,100,VALID,0.0339617,VALID,19.8816,VALID,95,VALID,0.695126,
2005-05-15, 02:01:00,VALID,916.192,VALID,0,VALID,100,VALID,0.0339617,VALID,19.8748,VALID,120,VALID,0.894626,
2005-05-15, 02:02:00,VALID,916.166,VALID,0,VALID,100,VALID,0.0169808,VALID,19.8753,VALID,105,VALID,0.759909,
2005-05-15, 02:03:00,VALID,916.17,VALID,0,VALID,100,VALID,0,VALID,19.8624,VALID,126,VALID,0.776989,
2005-05-15, 02:04:00,VALID,916.164,VALID,0,VALID,100,VALID,0,VALID,19.8659,VALID,114,VALID,0.708594,
2005-05-15, 02:05:00,VALID,916.16,VALID,0,VALID,100,VALID,0,VALID,19.8659,VALID,125,VALID,0.441797,
2005-05-15, 02:06:00,VALID,916.127,VALID,0,VALID,100,VALID,-0.0169808,VALID,19.8428,VALID,113,VALID,0.746366,
2005-05-15, 02:07:00,VALID,916.116,VALID,0,VALID,100,VALID,0,VALID,19.8336,VALID,93,VALID,0.609553,
2005-05-15, 02:08:00,VALID,916.111,VALID,0,VALID,100,VALID,-0.0169808,VALID,19.8339,VALID,78,VALID,0.824826,
2005-05-15, 02:09:00,VALID,916.102,VALID,0,VALID,100,VALID,0,VALID,19.8048,VALID,89,VALID,0.90282,
2005-05-15, 02:10:00,VALID,916.104,VALID,0,VALID,100,VALID,0,VALID,19.7946,VALID,86,VALID,0.781795,
2005-05-15, 02:11:00,VALID,916.112,VALID,0,VALID,100,VALID,0,VALID,19.7782,VALID,83,VALID,0.763139,
2005-05-15, 02:12:00,VALID,916.108,VALID,0,VALID,100,VALID,0.0169808,VALID,19.7787,VALID,84,VALID,0.91684,
2005-05-15, 02:13:00,VALID,916.079,VALID,0,VALID,100,VALID,0.0169808,VALID,19.7554,VALID,83,VALID,0.842988,
2005-05-15, 02:14:00,VALID,916.061,VALID,0,VALID,100,VALID,0.0169808,VALID,19.7526,VALID,92,VALID,0.741815,
2005-05-15, 02:15:00,VALID,916.058,VALID,0,VALID,100,VALID,0.0509425,VALID,19.7427,VALID,107,VALID,0.546365,
2005-05-15, 02:16:00,VALID,916.057,VALID,0,VALID,100,VALID,0,VALID,19.7367,VALID,120,VALID,0.605378,
2005-05-15, 02:17:00,VALID,916.05,VALID,0,VALID,100,VALID,0.0339617,VALID,19.7295,VALID,102,VALID,0.751272,
2005-05-15, 02:18:00,VALID,916.05,VALID,0,VALID,100,VALID,0.0339617,VALID,19.73,VALID,97,VALID,0.565589,
2005-05-15, 02:19:00,VALID,916.047,VALID,0,VALID,100,VALID,0.0679233,VALID,19.7271,VALID,97,VALID,0.632241,
2005-05-15, 02:20:00,VALID,916.041,VALID,0,VALID,100,VALID,0.0509425,VALID,19.7136,VALID,96,VALID,0.673651,
2005-05-15, 02:21:00,VALID,916.021,VALID,0,VALID,100,VALID,-0.0339617,VALID,19.7154,VALID,91,VALID,0.746003,
2005-05-15, 02:22:00,VALID,916.008,VALID,0,VALID,100,VALID,-0.0509425,VALID,19.7129,VALID,82,VALID,0.76726,
2005-05-15, 02:23:00,VALID,916.003,VALID,0,VALID,100,VALID,-0.0339617,VALID,19.693,VALID,80,VALID,0.93423,
2005-05-15, 02:24:00,VALID,915.988,VALID,0,VALID,100,VALID,-0.0339617,VALID,19.6702,VALID,92,VALID,1.15625,
2005-05-15, 02:25:00,VALID,915.999,VALID,0,VALID,100,VALID,-0.0339617,VALID,19.6828,VALID,80,VALID,1.04611,
2005-05-15, 02:26:00,VALID,915.992,VALID,0,VALID,100,VALID,-0.0679233,VALID,19.6831,VALID,83,VALID,1.24497,
2005-05-15, 02:27:00,VALID,916.013,VALID,0,VALID,100,VALID,-0.0509425,VALID,19.6734,VALID,34,VALID,1.40476,
2005-05-15, 02:28:00,VALID,916.026,VALID,0,VALID,100,VALID,-0.0679233,VALID,19.6697,VALID,28,VALID,1.26953,
2005-05-15, 02:29:00,VALID,916.044,VALID,0,VALID,100,VALID,-0.0849042,VALID,19.69,VALID,30,VALID,0.968568,
2005-05-15, 02:30:00,VALID,916.051,VALID,0,VALID,100,VALID,-0.0679233,VALID,19.7002,VALID,28,VALID,0.659961,
2005-05-15, 02:31:00,VALID,916.049,VALID,0,VALID,100,VALID,-0.0679233,VALID,19.7,VALID,26,VALID,0.628551,
2005-05-15, 02:32:00,VALID,916.037,VALID,0,VALID,100,VALID,-0.0339617,VALID,19.6903,VALID,26,VALID,0.89027,
2005-05-15, 02:33:00,VALID,916.025,VALID,0,VALID,100,VALID,-0.0509425,VALID,19.6637,VALID,29,VALID,0.750781,
2005-05-15, 02:34:00,VALID,916.024,VALID,0,VALID,100,VALID,-0.0679233,VALID,19.6647,VALID,32,VALID,0.554497,
2005-05-15, 02:35:00,VALID,916.004,VALID,0,VALID,100,VALID,-0.0849042,VALID,19.6615,VALID,35,VALID,0.61137,
2005-05-15, 02:36:00,VALID,916.001,VALID,0,VALID,100,VALID,-0.0339617,VALID,19.6376,VALID,37,VALID,0.560742,
2005-05-15, 02:37:00,VALID,915.996,VALID,0,VALID,100,VALID,0.0339617,VALID,19.6473,VALID,36,VALID,0.499169,
2005-05-15, 02:38:00,VALID,916.011,VALID,0,VALID,100,VALID,0.0509425,VALID,19.6237,VALID,36,VALID,0.180246,
2005-05-15, 02:39:00,VALID,916.034,VALID,0,VALID,100,VALID,0.0339617,VALID,19.6337,VALID,36,VALID,0.260901,
2005-05-15, 02:40:00,VALID,916.044,VALID,0,VALID,100,VALID,0.0339617,VALID,19.6404,VALID,36,VALID,0.140988,
2005-05-15, 02:41:00,VALID,916.053,VALID,0,VALID,100,VALID,0.0339617,VALID,19.6235,VALID,36,VALID,0.20827,
2005-05-15, 02:42:00,VALID,916.071,VALID,0,VALID,100,VALID,0.0339617,VALID,19.6339,VALID,36,VALID,0.174006,
2005-05-15, 02:43:00,VALID,916.074,VALID,0,VALID,100,VALID,0.0339617,VALID,19.6337,VALID,36,VALID,0.2141,
2005-05-15, 02:44:00,VALID,916.081,VALID,0,VALID,100,VALID,0.0339617,VALID,19.6468,VALID,36,VALID,0.514453,
2005-05-15, 02:45:00,VALID,916.089,VALID,0,VALID,100,VALID,0.0509425,VALID,19.6533,VALID,36,VALID,0.577172,
2005-05-15, 02:46:00,VALID,916.096,VALID,0,VALID,100,VALID,0.0339617,VALID,19.6665,VALID,36,VALID,0.648251,
2005-05-15, 02:47:00,VALID,916.116,VALID,0,VALID,100,VALID,0.0169808,VALID,19.66,VALID,36,VALID,0.578869,
2005-05-15, 02:48:00,VALID,916.12,VALID,0,VALID,100,VALID,0,VALID,19.6439,VALID,36,VALID,0.494851,
2005-05-15, 02:49:00,VALID,916.136,VALID,0,VALID,100,VALID,0.0339617,VALID,19.6342,VALID,34,VALID,0.758203,
2005-05-15, 02:50:00,VALID,916.119,VALID,0,VALID,100,VALID,-0.0169808,VALID,19.618,VALID,30,VALID,0.677557,
2005-05-15, 02:51:00,VALID,916.122,VALID,0,VALID,100,VALID,0,VALID,19.6049,VALID,30,VALID,0.864901,
2005-05-15, 02:52:00,VALID,916.132,VALID,0,VALID,100,VALID,0.0169808,VALID,19.6178,VALID,28,VALID,0.68843,
2005-05-15, 02:53:00,VALID,916.134,VALID,0,VALID,100,VALID,0.0509425,VALID,19.6178,VALID,25,VALID,0.519965,
2005-05-15, 02:54:00,VALID,916.124,VALID,0,VALID,100,VALID,0,VALID,19.6108,VALID,25,VALID,0.447731,
2005-05-15, 02:55:00,VALID,916.117,VALID,0,VALID,100,VALID,0.0169808,VALID,19.6083,VALID,25,VALID,0.500381,
2005-05-15, 02:56:00,VALID,916.119,VALID,0,VALID,100,VALID,0.0169808,VALID,19.5919,VALID,25,VALID,0.4109,
2005-05-15, 02:57:00,VALID,916.122,VALID,0,VALID,100,VALID,0,VALID,19.5919,VALID,25,VALID,0.248365,
2005-05-15, 02:58:00,VALID,916.109,VALID,0,VALID,100,VALID,0.0169808,VALID,19.5827,VALID,34,VALID,0.388263,
2005-05-15, 02:59:00,VALID,916.105,VALID,0,VALID,100,VALID,0,VALID,19.5661,VALID,46,VALID,0.424851,
2005-05-15, 03:00:00,VALID,916.083,VALID,0,VALID,100,VALID,0.0169808,VALID,19.5398,VALID,71,VALID,0.644271,
2005-05-15, 03:01:00,VALID,916.077,VALID,0,VALID,100,VALID,0.0339617,VALID,19.5269,VALID,85,VALID,0.637091,
2005-05-15, 03:02:00,VALID,916.067,VALID,0,VALID,100,VALID,0.0339617,VALID,19.5433,VALID,86,VALID,0.296131,
2005-05-15, 03:03:00,VALID,916.054,VALID,0,VALID,100,VALID,0.0849042,VALID,19.5529,VALID,86,VALID,0.10061,
2005-05-15, 03:04:00,VALID,916.053,VALID,0,VALID,100,VALID,0.0509425,VALID,19.5564,VALID,86,VALID,0.0683594,
2005-05-15, 03:05:00,VALID,916.061,VALID,0,VALID,100,VALID,0.0509425,VALID,19.5691,VALID,86,VALID,0,
2005-05-15, 03:06:00,VALID,916.078,VALID,0,VALID,100,VALID,0,VALID,19.5668,VALID,86,VALID,0,
2005-05-15, 03:07:00,VALID,916.09,VALID,0,VALID,100,VALID,-0.0849042,VALID,19.5485,VALID,86,VALID,0.178711,
2005-05-15, 03:08:00,VALID,916.09,VALID,0,VALID,100,VALID,-0.0679233,VALID,19.5127,VALID,86,VALID,0.0614347,
2005-05-15, 03:09:00,VALID,916.073,VALID,0,VALID,100,VALID,-0.101885,VALID,19.5062,VALID,81,VALID,0.371548,
2005-05-15, 03:10:00,VALID,916.065,VALID,0,VALID,100,VALID,-0.0679233,VALID,19.5122,VALID,73,VALID,0.689631,
2005-05-15, 03:11:00,VALID,916.087,VALID,0,VALID,100,VALID,-0.0679233,VALID,19.5321,VALID,68,VALID,0.616629,
2005-05-15, 03:12:00,VALID,916.101,VALID,0,VALID,100,VALID,-0.0849042,VALID,19.5549,VALID,67,VALID,0.234747,
2005-05-15, 03:13:00,VALID,916.114,VALID,0,VALID,100,VALID,-0.0849042,VALID,19.5487,VALID,67,VALID,0.0303416,
2005-05-15, 03:14:00,VALID,916.12,VALID,0,VALID,100,VALID,-0.101885,VALID,19.5293,VALID,67,VALID,0.0407774,
2005-05-15, 03:15:00,VALID,916.129,VALID,0,VALID,100,VALID,-0.0849042,VALID,19.5231,VALID,67,VALID,0,
2005-05-15, 03:16:00,VALID,916.14,VALID,0,VALID,100,VALID,-0.0849042,VALID,19.5256,VALID,67,VALID,0.0612282,
2005-05-15, 03:17:00,VALID,916.147,VALID,0,VALID,100,VALID,-0.101885,VALID,19.5194,VALID,52,VALID,0.387355,
2005-05-15, 03:18:00,VALID,916.159,VALID,0,VALID,100,VALID,-0.0679233,VALID,19.5194,VALID,47,VALID,0.334695,
2005-05-15, 03:19:00,VALID,916.164,VALID,0,VALID,100,VALID,-0.0509425,VALID,19.5154,VALID,47,VALID,0.1375,
2005-05-15, 03:20:00,VALID,916.163,VALID,0,VALID,100,VALID,-0.0509425,VALID,19.4896,VALID,47,VALID,0.000726744,
2005-05-15, 03:21:00,VALID,916.156,VALID,0,VALID,100,VALID,-0.0509425,VALID,19.4692,VALID,47,VALID,0.0240234,
2005-05-15, 03:22:00,VALID,916.154,VALID,0,VALID,100,VALID,0,VALID,19.4536,VALID,47,VALID,0.0946801,
2005-05-15, 03:23:00,VALID,916.146,VALID,0,VALID,100,VALID,0,VALID,19.4307,VALID,47,VALID,0.0554315,
2005-05-15, 03:24:00,VALID,916.135,VALID,0,VALID,100,VALID,-0.0169808,VALID,19.4437,VALID,28,VALID,0.4375,
2005-05-15, 03:25:00,VALID,916.112,VALID,0,VALID,100,VALID,0,VALID,19.4079,VALID,21,VALID,0.550977,
2005-05-15, 03:26:00,VALID,916.115,VALID,0,VALID,100,VALID,0.0339617,VALID,19.4278,VALID,27,VALID,0.659446,
2005-05-15, 03:27:00,VALID,916.13,VALID,0,VALID,100,VALID,0,VALID,19.4305,VALID,27,VALID,0.339658,
2005-05-15, 03:28:00,VALID,916.139,VALID,0,VALID,100,VALID,0,VALID,19.4504,VALID,27,VALID,0.176781,
2005-05-15, 03:29:00,VALID,916.13,VALID,0,VALID,100,VALID,0,VALID,19.434,VALID,25,VALID,0.347747,
2005-05-15, 03:30:00,VALID,916.139,VALID,0,VALID,99.9954,VALID,0,VALID,19.4079,VALID,20,VALID,0.440225,
2005-05-15, 03:31:00,VALID,916.159,VALID,0,VALID,100,VALID,0.0169808,VALID,19.4144,VALID,15,VALID,0.0223214,
2005-05-15, 03:32:00,VALID,916.196,VALID,0,VALID,100,VALID,0,VALID,19.4176,VALID,15,VALID,0,
2005-05-15, 03:33:00,VALID,916.196,VALID,0,VALID,100,VALID,0,VALID,19.4148,VALID,15,VALID,0,
2005-05-15, 03:34:00,VALID,916.207,VALID,0,VALID,100,VALID,0,VALID,19.4116,VALID,15,VALID,0.22603,
2005-05-15, 03:35:00,VALID,916.212,VALID,0,VALID,100,VALID,0,VALID,19.4116,VALID,15,VALID,0.240916,
2005-05-15, 03:36:00,VALID,916.215,VALID,0,VALID,99.999,VALID,-0.0169808,VALID,19.3922,VALID,15,VALID,0.158918,
2005-05-15, 03:37:00,VALID,916.227,VALID,0,VALID,99.9634,VALID,0,VALID,19.3918,VALID,15,VALID,0.207919,
2005-05-15, 03:38:00,VALID,916.228,VALID,0,VALID,99.9176,VALID,0,VALID,19.3885,VALID,15,VALID,0.0718369,
2005-05-15, 03:39:00,VALID,916.242,VALID,0,VALID,99.9735,VALID,0,VALID,19.3858,VALID,15,VALID,0.308416,
2005-05-15, 03:40:00,VALID,916.274,VALID,0,VALID,99.999,VALID,0.0169808,VALID,19.3957,VALID,15,VALID,0.0946378,
2005-05-15, 03:41:00,VALID,916.261,VALID,0,VALID,100,VALID,0,VALID,19.3922,VALID,15,VALID,0,
2005-05-15, 03:42:00,VALID,916.252,VALID,0,VALID,100,VALID,0,VALID,19.3662,VALID,21,VALID,0.192773,